Location: Kapuskasing
(49.3803°N, 82.4001°W)
Time: 12:15:43
(UTC-04:00)

ISS - Visible Passes

Search period start: 09 September 2024 00:00
Search period end: 19 September 2024 00:00
Orbit: 415 x 425 km, 51.6° (Epoch: 09 September)

Date Brightness Start Highest point End Pass type
(mag) Time Alt. Az. Time Alt. Az. Time Alt. Az.
10 Sep -1.5 20:50:46 10° SSE 20:51:21 11° SE 20:51:21 11° SE visible
11 Sep -2.6 21:37:36 10° SW 21:39:45 29° S 21:39:45 29° S visible
12 Sep -2.6 20:50:35 10° SSW 20:53:24 25° SE 20:54:47 19° ESE visible
12 Sep -1.5 22:26:34 10° WSW 22:27:47 21° WSW 22:27:47 21° WSW visible
13 Sep -3.9 21:39:04 10° WSW 21:42:25 73° SSE 21:42:32 72° SE visible
14 Sep -3.6 20:51:37 10° SW 20:54:53 52° SSE 20:57:04 19° E visible
14 Sep -1.7 22:28:21 10° W 22:30:01 26° W 22:30:01 26° W visible
15 Sep -3.6 21:40:39 10° W 21:44:01 70° NNW 21:44:22 63° NNE visible
16 Sep -3.8 20:52:56 10° WSW 20:56:17 86° NNW 20:58:35 19° ENE visible
16 Sep -1.5 22:29:56 10° WNW 22:31:31 25° WNW 22:31:31 25° WNW visible
17 Sep -3.7 20:05:11 10° WSW 20:08:32 72° SSE 20:11:54 10° ENE visible
17 Sep -3.4 21:42:07 10° W 21:45:27 56° N 21:45:35 56° N visible
18 Sep -3.4 20:54:13 10° W 20:57:33 61° N 20:59:34 22° ENE visible
18 Sep -1.2 22:31:13 10° WNW 22:32:29 21° WNW 22:32:29 21° WNW visible
